ZKVME NZAR-NZNP

Flight info

Callsign ZKVME
Flight time 0h 40m
Altitude 12000
Route ORIDI
Aircraft BE20/L-SBGRY/S

Departure

Time 2026-04-12 04:24
Airport Ardmore Airport (NZAR)

Arrival

Time 2026-04-12 05:04
Airport New Plymouth Airport (NZNP)
Time Latitude Longitude Altitude Speed Heading
2026-04-12 03:54 -37.03615 174.97034 119 ft 0 kts 226°
2026-04-12 03:57 -37.03616 174.97033 119 ft 0 kts 227°
2026-04-12 03:58 -37.03616 174.97032 120 ft 0 kts 235°
2026-04-12 04:09 -37.03612 174.96997 127 ft 10 kts 307°
2026-04-12 04:09 -37.03579 174.96955 128 ft 3 kts 319°
2026-04-12 04:09 -37.03555 174.96943 128 ft 13 kts 358°
2026-04-12 04:09 -37.03535 174.96972 128 ft 0 kts 19°
2026-04-12 04:10 -37.03541 174.96955 126 ft 0 kts 316°
2026-04-12 04:11 -37.03535 174.96977 128 ft 0 kts 42°
2026-04-12 04:11 -37.03465 174.97065 130 ft 45 kts 46°
2026-04-12 04:11 -37.03302 174.97272 132 ft 18 kts 45°
2026-04-12 04:12 -37.03258 174.97329 132 ft 2 kts 46°
2026-04-12 04:12 -37.03245 174.97346 132 ft 11 kts 46°
2026-04-12 04:12 -37.03137 174.97485 129 ft 23 kts 44°
2026-04-12 04:12 -37.03078 174.97561 129 ft 7 kts 44°
2026-04-12 04:13 -37.03039 174.97610 129 ft 18 kts 44°
2026-04-12 04:13 -37.02889 174.97797 128 ft 41 kts 44°
2026-04-12 04:13 -37.02817 174.97968 130 ft 14 kts 99°
2026-04-12 04:13 -37.02819 174.98061 130 ft 5 kts 89°
2026-04-12 04:14 -37.02810 174.98137 129 ft 11 kts 56°
2026-04-12 04:14 -37.02777 174.98126 127 ft 12 kts 333°
2026-04-12 04:14 -37.02691 174.98067 128 ft 0 kts 333°
2026-04-12 04:22 -37.02693 174.98068 128 ft 0 kts 341°
2026-04-12 04:23 -37.02680 174.97962 127 ft 17 kts 224°
2026-04-12 04:23 -37.02689 174.97951 128 ft 0 kts 224°
2026-04-12 04:23 -37.02785 174.97828 129 ft 67 kts 226°
2026-04-12 04:23 -37.03287 174.97181 403 ft 127 kts 232°
2026-04-12 04:24 -37.03955 174.96314 899 ft 151 kts 234°
2026-04-12 04:24 -37.04703 174.95380 1513 ft 153 kts 230°
2026-04-12 04:24 -37.05505 174.94545 2240 ft 153 kts 216°
2026-04-12 04:24 -37.06486 174.94047 2985 ft 147 kts 218°
2026-04-12 04:25 -37.07424 174.93558 3733 ft 148 kts 207°
2026-04-12 04:25 -37.08433 174.93293 4485 ft 150 kts 201°
2026-04-12 04:25 -37.09498 174.93252 5177 ft 157 kts 192°
2026-04-12 04:25 -37.10618 174.93466 5859 ft 167 kts 185°
2026-04-12 04:26 -37.11760 174.93744 6512 ft 168 kts 186°
2026-04-12 04:26 -37.12918 174.93999 7173 ft 170 kts 186°
2026-04-12 04:26 -37.14082 174.94323 7829 ft 177 kts 179°
2026-04-12 04:26 -37.15277 174.94734 8522 ft 179 kts 180°
2026-04-12 04:27 -37.16485 174.95141 9224 ft 181 kts 179°
2026-04-12 04:27 -37.17709 174.95538 9881 ft 182 kts 179°
2026-04-12 04:27 -37.18939 174.95944 10547 ft 183 kts 180°
2026-04-12 04:27 -37.20171 174.96355 11237 ft 183 kts 180°
2026-04-12 04:28 -37.21405 174.96765 11943 ft 183 kts 181°
2026-04-12 04:28 -37.22622 174.97170 12664 ft 184 kts 181°
2026-04-12 04:28 -37.23871 174.97579 13450 ft 187 kts 181°
2026-04-12 04:28 -37.25143 174.98018 14173 ft 192 kts 181°
2026-04-12 04:29 -37.26447 174.98443 14899 ft 196 kts 181°
2026-04-12 04:29 -37.27785 174.98875 15611 ft 201 kts 180°
2026-04-12 04:29 -37.29160 174.99328 16374 ft 207 kts 180°
2026-04-12 04:29 -37.30576 174.99809 17143 ft 216 kts 175°
2026-04-12 04:30 -37.31997 175.00630 17878 ft 231 kts 164°
2026-04-12 04:30 -37.33435 175.01552 18565 ft 233 kts 165°
2026-04-12 04:30 -37.34630 175.02275 19162 ft 235 kts 164°
2026-04-12 04:31 -37.35450 175.02779 19581 ft 236 kts 163°
2026-04-12 04:31 -37.36961 175.03552 20312 ft 234 kts 173°
2026-04-12 04:31 -37.38571 175.03741 20822 ft 235 kts 198°
2026-04-12 04:31 -37.39953 175.02720 21016 ft 241 kts 239°
2026-04-12 04:32 -37.40175 175.00655 20887 ft 262 kts 292°
2026-04-12 04:32 -37.38567 174.99388 20161 ft 324 kts
2026-04-12 04:32 -37.36858 175.01090 20728 ft 326 kts 67°
2026-04-12 04:32 -37.36626 175.03683 22297 ft 287 kts 101°
2026-04-12 04:33 -37.37589 175.05680 23036 ft 278 kts 155°
2026-04-12 04:33 -37.39583 175.05939 21865 ft 314 kts 191°
2026-04-12 04:33 -37.41722 175.05609 22101 ft 309 kts 192°
2026-04-12 04:33 -37.43874 175.05413 22227 ft 312 kts 186°
2026-04-12 04:34 -37.46052 175.05553 22357 ft 316 kts 179°
2026-04-12 04:34 -37.48208 175.05985 22302 ft 291 kts 178°
2026-04-12 04:34 -37.50070 175.06108 20408 ft 270 kts 193°
2026-04-12 04:34 -37.51915 175.05663 18453 ft 272 kts 198°
2026-04-12 04:35 -37.53778 175.05244 16453 ft 269 kts 199°
2026-04-12 04:35 -37.55543 175.04705 14482 ft 253 kts 205°
2026-04-12 04:35 -37.57107 175.04013 12628 ft 228 kts 210°
2026-04-12 04:35 -37.58522 175.03356 11441 ft 199 kts 207°
2026-04-12 04:36 -37.59687 175.02895 11346 ft 155 kts 209°
2026-04-12 04:36 -37.60625 175.02494 11339 ft 134 kts 211°
2026-04-12 04:36 -37.61657 175.02002 11336 ft 183 kts 209°
2026-04-12 04:36 -37.62966 175.01405 11338 ft 213 kts 207°
2026-04-12 04:37 -37.64420 175.00771 11344 ft 227 kts 207°
2026-04-12 04:37 -37.65947 175.00115 11350 ft 235 kts 206°
2026-04-12 04:37 -37.67506 174.99441 11354 ft 238 kts 207°
2026-04-12 04:37 -37.69053 174.98762 11347 ft 240 kts 206°
2026-04-12 04:38 -37.70634 174.98080 11343 ft 240 kts 206°
2026-04-12 04:38 -37.72214 174.97391 11340 ft 240 kts 206°
2026-04-12 04:38 -37.73799 174.96708 11366 ft 241 kts 206°
2026-04-12 04:38 -37.75380 174.96017 11366 ft 241 kts 206°
2026-04-12 04:39 -37.76972 174.95319 11360 ft 243 kts 206°
2026-04-12 04:39 -37.78569 174.94624 11359 ft 243 kts 206°
2026-04-12 04:39 -37.80166 174.93928 11353 ft 243 kts 206°
2026-04-12 04:39 -37.81743 174.93239 11352 ft 243 kts 206°
2026-04-12 04:40 -37.83342 174.92542 11347 ft 243 kts 206°
2026-04-12 04:40 -37.84945 174.91840 11359 ft 245 kts 205°
2026-04-12 04:40 -37.86577 174.91124 11351 ft 251 kts 204°
2026-04-12 04:40 -37.88239 174.90410 11348 ft 253 kts 205°
2026-04-12 04:41 -37.89904 174.89677 11343 ft 254 kts 205°
2026-04-12 04:41 -37.91576 174.88932 11342 ft 255 kts 205°
2026-04-12 04:41 -37.93255 174.88194 11340 ft 256 kts 205°
2026-04-12 04:41 -37.94935 174.87474 11332 ft 254 kts 204°
2026-04-12 04:42 -37.96583 174.86756 11333 ft 254 kts 205°
2026-04-12 04:42 -37.98249 174.86018 11333 ft 254 kts 205°
2026-04-12 04:42 -37.99913 174.85288 11328 ft 253 kts 205°
2026-04-12 04:43 -38.03224 174.83836 11328 ft 251 kts 205°
2026-04-12 04:43 -38.04855 174.83119 11326 ft 250 kts 205°
2026-04-12 04:43 -38.06515 174.82390 11328 ft 249 kts 205°
2026-04-12 04:43 -38.08153 174.81669 11348 ft 249 kts 204°
2026-04-12 04:44 -38.09766 174.80960 11344 ft 249 kts 204°
2026-04-12 04:44 -38.11405 174.80240 11341 ft 249 kts 204°
2026-04-12 04:44 -38.13041 174.79518 11343 ft 249 kts 204°
2026-04-12 04:44 -38.14677 174.78797 11348 ft 249 kts 204°
2026-04-12 04:45 -38.16311 174.78070 11347 ft 249 kts 204°
2026-04-12 04:45 -38.17953 174.77354 11342 ft 249 kts 203°
2026-04-12 04:45 -38.19034 174.76881 11341 ft 248 kts 204°
2026-04-12 04:45 -38.21206 174.75909 11341 ft 248 kts 203°
2026-04-12 04:46 -38.22835 174.75204 11345 ft 248 kts 203°
2026-04-12 04:46 -38.24443 174.74497 11346 ft 247 kts 204°
2026-04-12 04:46 -38.26063 174.73778 11341 ft 246 kts 204°
2026-04-12 04:46 -38.27675 174.73059 11339 ft 244 kts 204°
2026-04-12 04:47 -38.29271 174.72351 11342 ft 242 kts 204°
2026-04-12 04:47 -38.30860 174.71650 11338 ft 241 kts 204°
2026-04-12 04:47 -38.32445 174.70953 11339 ft 241 kts 204°
2026-04-12 04:47 -38.33493 174.70486 11339 ft 241 kts 204°
2026-04-12 04:48 -38.35069 174.69780 11344 ft 239 kts 204°
2026-04-12 04:48 -38.36636 174.69088 11333 ft 238 kts 204°
2026-04-12 04:48 -38.38694 174.68183 11338 ft 236 kts 204°
2026-04-12 04:48 -38.39742 174.67716 11338 ft 236 kts 204°
2026-04-12 04:49 -38.41276 174.67036 11336 ft 236 kts 204°
2026-04-12 04:49 -38.42824 174.66346 11353 ft 233 kts 206°
2026-04-12 04:49 -38.44348 174.65668 11353 ft 231 kts 206°
2026-04-12 04:49 -38.45866 174.64999 11351 ft 231 kts 204°
2026-04-12 04:50 -38.47383 174.64314 11355 ft 231 kts 206°
2026-04-12 04:50 -38.48892 174.63637 11351 ft 229 kts 205°
2026-04-12 04:50 -38.50397 174.62974 11354 ft 228 kts 205°
2026-04-12 04:50 -38.51884 174.62315 11353 ft 225 kts 205°
2026-04-12 04:51 -38.53841 174.61449 11346 ft 226 kts 205°
2026-04-12 04:51 -38.55331 174.60787 11352 ft 227 kts 206°
2026-04-12 04:51 -38.56320 174.60349 11350 ft 227 kts 206°
2026-04-12 04:51 -38.57810 174.59676 11350 ft 228 kts 204°
2026-04-12 04:52 -38.59301 174.59002 11349 ft 227 kts 204°
2026-04-12 04:52 -38.60794 174.58335 11353 ft 227 kts 206°
2026-04-12 04:52 -38.62143 174.57351 11369 ft 221 kts 222°
2026-04-12 04:52 -38.63735 174.55735 11352 ft 222 kts 221°
2026-04-12 04:53 -38.64563 174.54922 11356 ft 222 kts 223°
2026-04-12 04:53 -38.65761 174.53727 11351 ft 221 kts 223°
2026-04-12 04:53 -38.68184 174.51286 11367 ft 222 kts 221°
2026-04-12 04:54 -38.69395 174.50067 11366 ft 221 kts 222°
2026-04-12 04:54 -38.70604 174.48845 11366 ft 222 kts 221°
2026-04-12 04:54 -38.71820 174.47625 11363 ft 221 kts 223°
2026-04-12 04:54 -38.73023 174.46407 11364 ft 221 kts 222°
2026-04-12 04:55 -38.74233 174.45188 11363 ft 221 kts 223°
2026-04-12 04:55 -38.75435 174.43957 11361 ft 220 kts 224°
2026-04-12 04:55 -38.76620 174.42739 11366 ft 224 kts 222°
2026-04-12 04:55 -38.77853 174.41488 11364 ft 228 kts 222°
2026-04-12 04:56 -38.79095 174.40217 11363 ft 229 kts 221°
2026-04-12 04:56 -38.80342 174.38946 11366 ft 230 kts 222°
2026-04-12 04:56 -38.81593 174.37664 11359 ft 230 kts 223°
2026-04-12 04:56 -38.82841 174.36381 11369 ft 230 kts 223°
2026-04-12 04:57 -38.84095 174.35102 11372 ft 230 kts 223°
2026-04-12 04:57 -38.85347 174.33816 11372 ft 230 kts 223°
2026-04-12 04:57 -38.86351 174.32815 11366 ft 137 kts 221°
2026-04-12 04:57 -38.87006 174.32165 10832 ft 119 kts 225°
2026-04-12 04:58 -38.87690 174.31444 9607 ft 134 kts 225°
2026-04-12 04:58 -38.88435 174.30673 8274 ft 139 kts 224°
2026-04-12 04:58 -38.89100 174.29780 6981 ft 137 kts 233°
2026-04-12 04:58 -38.89723 174.28837 5718 ft 137 kts 229°
2026-04-12 04:59 -38.90339 174.27966 4442 ft 161 kts 225°
2026-04-12 04:59 -38.91249 174.26667 3799 ft 209 kts 227°
2026-04-12 04:59 -38.92203 174.25290 3792 ft 208 kts 226°
2026-04-12 04:59 -38.93183 174.23933 3793 ft 206 kts 226°
2026-04-12 05:00 -38.93348 174.23705 3791 ft 206 kts 226°
2026-04-12 05:00 -38.93901 174.22935 3715 ft 173 kts 226°
2026-04-12 05:00 -38.94548 174.22034 2472 ft 119 kts 223°
2026-04-12 05:01 -38.95085 174.21301 1301 ft 109 kts 222°
2026-04-12 05:01 -38.95540 174.20668 795 ft 75 kts 224°
2026-04-12 05:01 -38.96114 174.19995 809 ft 148 kts 218°
2026-04-12 05:01 -38.96903 174.19153 802 ft 118 kts 206°
2026-04-12 05:02 -38.97618 174.19293 794 ft 113 kts 149°
2026-04-12 05:02 -38.97958 174.20271 795 ft 124 kts 118°
2026-04-12 05:02 -38.98252 174.21287 797 ft 114 kts 130°
2026-04-12 05:02 -38.98780 174.21852 794 ft 96 kts 181°
2026-04-12 05:03 -38.99388 174.21595 791 ft 97 kts 221°
2026-04-12 05:03 -38.99705 174.20798 807 ft 101 kts 242°
2026-04-12 05:03 -39.00029 174.19912 433 ft 120 kts 247°
2026-04-12 05:03 -39.00327 174.19047 221 ft 82 kts 249°
2026-04-12 05:04 -39.00554 174.18409 123 ft 67 kts 248°
2026-04-12 05:04 -39.00706 174.17978 99 ft 43 kts 248°
2026-04-12 05:04 -39.00772 174.17800 101 ft 13 kts 217°
2026-04-12 05:04 -39.00797 174.17793 99 ft 0 kts 153°
2026-04-12 05:05 -39.00924 174.17850 99 ft 13 kts 177°
2026-04-12 05:05 -39.00939 174.17868 99 ft 4 kts 55°
2026-04-12 05:05 -39.00897 174.17850 99 ft 0 kts 289°
2026-04-12 05:05 -39.00922 174.17824 99 ft 16 kts 202°
2026-04-12 05:06 -39.00960 174.17807 99 ft 0 kts 194°